{"data":{"norad_id":51626,"epoch":"2026-05-25T03:25:38.969760Z","epoch_age_seconds":66185,"freshness":"FRESH","line1":"1 51626U 22012E   26145.14281215  .00000154  00000+0  36471-3 0  9992","line2":"2 51626  87.9160  10.4394 0001656  62.9311 297.1989 13.17649495210775","mean_motion":13.17649495,"eccentricity":0.0001656,"inclination_deg":87.916,"raan_deg":10.4394,"arg_perigee_deg":62.9311,"mean_anomaly_deg":297.1989,"bstar":0.00036471,"rev_number":21077,"period_min":109.28551222949,"perigee_km":1192.4574654352,"apogee_km":1194.9652616132,"semimajor_km":7571.8483635242,"source":"CELESTRAK","updated_at":"2026-05-25T13:38:22.576614Z"}}